ISS (ZARYA) 1 25544U 98067A 26248.49850432 .00004040 00000+0 81465-4 0 9992 2 25544 51.6310 262.6049 0005057 109.4187 250.7348 15.48996812584205 POISK 1 36086U 09060A 26248.49850432 .00004040 00000+0 81465-4 0 9990 2 36086 51.6310 262.6049 0005057 109.4187 250.7348 15.48996812585007 CSS (TIANHE) 1 48274U 21035A 26248.49253431 .00014037 00000+0 17513-3 0 9993 2 48274 41.4675 194.4869 0002305 258.4916 101.5663 15.59601072305703 ISS (NAUKA) 1 49044U 21066A 26248.49850432 .00004040 00000+0 81465-4 0 9998 2 49044 51.6310 262.6049 0005057 109.4187 250.7348 15.48996812585049 FREGAT DEB 1 49271U 11037PF 26248.38051763 .00014408 00000+0 20893-1 0 9999 2 49271 51.6397 120.4408 0935968 100.1587 270.6037 12.44122859235022 CSS (WENTIAN) 1 53239U 22085A 26248.49253431 .00014037 00000+0 17513-3 0 9996 2 53239 41.4675 194.4869 0002305 258.4916 101.5663 15.59601072288238 CSS (MENGTIAN) 1 54216U 22143A 26248.49253431 .00014037 00000+0 17513-3 0 9997 2 54216 41.4675 194.4869 0002305 258.4916 101.5663 15.59601072306314 HRC MONOBLOCK CAMERA 1 66052U 98067XR 26248.21848690 .00138768 18182-4 44918-3 0 9995 2 66052 51.6161 223.7071 0005573 78.1037 282.0594 15.90551457 50668 SZ-21 MODULE 1 66515U 25246C 26248.48735640 .00053552 00000+0 22969-3 0 9991 2 66515 41.4701 164.4965 0011468 239.7809 120.1903 15.84096963 46440 DUPLEX 1 66906U 98067XS 26248.22677234 .00035501 00000+0 30872-3 0 9998 2 66906 51.6240 243.4850 0004406 95.4748 264.6751 15.68691024 43194 KNACKSAT-2 1 67683U 98067XZ 26248.30156742 .00045923 00000+0 41420-3 0 9996 2 67683 51.6248 249.2623 0007596 122.5572 237.6159 15.67650985 32816 GXIBA-1 1 67685U 98067YB 26248.24308968 .00058101 00000+0 45135-3 0 9999 2 67685 51.6226 247.3432 0008325 117.8806 242.3036 15.71163140 32835 UITMSAT-2 1 67686U 98067YC 26248.22225029 .00127002 00000+0 64551-3 0 9994 2 67686 51.6215 242.6595 0008018 85.0005 275.1912 15.80523084 32898 LEOPARD 1 67687U 98067YD 26248.22964697 .00080326 00000+0 61419-3 0 9993 2 67687 51.6242 248.0402 0007996 88.1908 272.0006 15.71412900 32744 HMU-SAT2 1 67688U 98067YE 26248.22736234 .00089286 00000+0 56816-3 0 9997 2 67688 51.6242 244.9889 0007776 87.1593 273.0297 15.75655416 32786 CREW DRAGON 12 1 67796U 26031A 26248.49850423 .00004117 00000+0 82858-4 0 9991 2 67796 51.6310 262.6049 0005057 109.4089 250.7447 15.48997055585088 PROGRESS-MS 33 1 68319U 26058A 26248.49850432 .00004040 00000+0 81465-4 0 9990 2 68319 51.6310 262.6049 0005057 109.4187 250.7348 15.48996812585168 CYGNUS NG-24 1 68689U 26079A 26248.49850423 .00004117 00000+0 82858-4 0 9995 2 68689 51.6310 262.6049 0005057 109.4089 250.7447 15.48997055585204 PROGRESS-MS 34 1 68837U 26093A 26248.49850423 .00004117 00000+0 82858-4 0 9996 2 68837 51.6310 262.6049 0005057 109.4089 250.7447 15.48997055585243 TIANZHOU-10 1 69049U 26102A 26248.49253431 .00014037 00000+0 17513-3 0 9996 2 69049 41.4675 194.4869 0002305 258.4916 101.5663 15.59601072306279 SHENZHOU-23 (SZ-23) 1 69180U 26113A 26248.49253431 .00014037 00000+0 17513-3 0 9994 2 69180 41.4675 194.4869 0002305 258.4916 101.5663 15.59601072306130